AirNav   ProFlight Series 2 Aviation Headset
 
 1070 users online  

12PS Siple Heliport
Lewisville, Pennsylvania, USA

GOING TO LEWISVILLE?


FAA INFORMATION EFFECTIVE 18 JUNE 2020

Location

FAA Identifier: 12PS
Lat/Long: 39-43-25.6000N 075-52-53.0000W
39-43.426667N 075-52.883333W
39.7237778,-75.8813889
(estimated)
Elevation: 419 ft. / 128 m (estimated)
From city: 1 mile W of LEWISVILLE, PA
Time zone: UTC -4 (UTC -5 during Standard Time)
Zip code: 19352

Heliport Operations

Heliport use: Private use. Permission required prior to landing
Activation date: 08/2004
Control tower: no
ARTCC: NEW YORK CENTER
FSS: NEW YORK FLIGHT SERVICE STATION
Attendance: UNATNDD
Wind indicator: yes
Segmented circle: no

Heliport Communications

WX ASOS at ILG (13 nm E): PHONE 302-328-1536
WX AWOS-3 at EVY (14 nm SE): 132.325 (302-378-2063)
WX AWOS-3 at MQS (15 nm N): 126.25 (610-384-6132)

Nearby radio navigation aids

VOR radial/distance  VOR name  Freq  Var
DQOr292/13.0DUPONT VORTAC114.0010W
MXEr229/15.2MODENA VORTAC113.2009W
OODr291/27.2WOODSTOWN VORTAC112.8010W
LRPr151/30.3LANCASTER VOR/DME117.3009W
PTWr215/33.4POTTSTOWN VORTAC116.5009W
ENOr339/34.0SMYRNA VORTAC111.4009W

 
NDB name  Hdg/Dist  Freq  Var  ID
AMBLER241/36.527512WING .. -. --.
RAINBOW309/39.136311WRNB .-. -. -...

Heliport Services

Runway Information

Helipad H1

Dimensions: 65 x 65 ft. / 20 x 20 m
Surface: turf
Traffic pattern: leftleft
Markings: basic

Heliport Ownership and Management from official FAA records

Ownership: Privately-owned
Owner: TIMOTHY A. SIPLE
P.O. BOX 46;, 2658 LEWISVILLE RD
LEWISVILLE, PA 19351
Phone 610-932-5047
Manager: TIMOTHY A. SIPLE
P.O. BOX 46;, 2658 LEWISVILLE RD
LEWISVILLE, PA 19351
Phone 610-932-5047

Heliport Operational Statistics

Aircraft based on the field: 1
Helicopters: 1
    

Additional Remarks

FOR CD CTC PHILADELPHIA APCH AT 800-354-9884.

Instrument Procedures

There are no published instrument procedures at 12PS.

Some nearby airports with instrument procedures:

N57 - New Garden Airport (8 nm NE)
58M - Claremont Airport (9 nm S)
KILG - New Castle Airport (13 nm E)
KEVY - Summit Airport (14 nm SE)
KMQS - Chester County G O Carlson Airport (15 nm N)
0W3 - Harford County Airport (18 nm SW)
 
Loc | Ops | Rwys | IFR | FBO | Links
Com | Nav | Svcs | Stats | Notes
Area around 12PS (Siple Heliport)
 
Road maps at: MapQuest Bing Google
 
Aerial photo
No photo
 
Sectional chart

 
Airport distance calculator
Flying to Siple Heliport? Find the distance to fly.

From to 12PS

Sunrise and sunset
Times for 12-Jul-2020
 Local
(UTC-4)
 Zulu
(UTC)
Morning civil twilight05:1609:16
Sunrise05:4809:48
Sunset20:3100:31
Evening civil twilight21:0301:03

Current date and time
Zulu (UTC)  12-Jul-2020 19:13:46
Local (UTC-4)  12-Jul-2020 15:13:46
 
METAR
KILG 
13nm E 
121851Z 21009KT 10SM FEW060 31/17 A2977 RMK AO2 SLP079 T03110167
KMQS 
15nm N 
121855Z AUTO 24004KT 10SM FEW095 29/18 A2979 RMK AO2
KAPG 
18nm SW 
121858Z AUTO 19011KT 10SM FEW100 31/18 A2975 RMK AO2 SLP077 T03100184 $
KOQN 
21nm NE 
121855Z AUTO 24005KT 10SM SCT060 SCT080 BKN110 30/16 A2977 RMK AO2
TAF
KILG 
13nm E 
121726Z 1218/1318 23008KT P6SM SCT050 BKN120 FM122200 22008KT P6SM VCSH BKN050 FM130000 21005KT P6SM -SHRA BKN045 FM130500 VRB03KT P6SM BKN060 FM131200 31006KT P6SM BKN200
NOTAMs
Click for the latest NOTAMs
NOTAMs are issued by the DoD/FAA and will open in a separate window not controlled by AirNav.

 

 
 

Would you like to see your business listed on this page?

 If your business provides an interesting product or service to pilots, flight crews, aircraft, or users of the Siple Heliport, you should consider listing it here.  To start the listing process, click on the button below
 
Add a business
 

Other Pages about Siple Heliport

Update a link
 
Copyright © AirNav, LLC. All rights reserved. Privacy Policy  Contact